Weather History for BGSF - June, 2013

Change the Weather History Date:

Sunday, June 16, 2013

  Actual Average Record
Temperature  
Mean Temperature 50 °F -  
Max Temperature 63 °F 60 °F 68 °F (2014)
Min Temperature 37 °F 41 °F 35 °F (1999)
Degree Days  
Heating Degree Days 15    
Moisture  
Dew Point 32 °F    
Average Humidity 47    
Maximum Humidity 81    
Minimum Humidity 17    
Precipitation  
Precipitation 0.00 in 0.02 in - ()
Sea Level Pressure  
Sea Level Pressure 29.74 in    
Wind  
Wind Speed 8 mph ()    
Max Wind Speed 15 mph    
Max Gust Speed 25 mph    
Visibility 6.4 miles    
Events      
Averages and records for this station are not official NWS values.
T = Trace of Precipitation, MM = Missing Value Source: Averaged Metar Reports

Daily Weather History Graph

Daily Weather History Graph

Search for Another Location

Airport or City:

Trip Planner

Search our weather history database for the weather conditions in past years. The results will help you decide how hot, cold, wet, or windy it might be!

Date:

Astronomy

Jun. 16, 2013 Rise Set
Actual Time 1:55 AM WGST 12:51 AM WGST
Civil Twilight Sun does not rise Sun does not rise
Nautical Twilight Sun does not rise Sun does not rise
Astronomical Twilight Sun does not rise Sun does not rise
Moon 1:33 PM WGST (6/16) 12:59 AM WGST (6/16)
Length of Visible Light 24h 00m
Length of Day
22h 55m
Waxing Crescent, 49% of the Moon is Illuminated
Jun 16
Waxing Crescent
Jun 16
First Quarter
Jun 23
Full
Jun 30
Last Quarter
Jul 8
New

Hourly Weather History & Observations

Time (WGST) Temp. Windchill Dew Point Humidity Pressure Visibility Wind Dir Wind Speed Gust Speed Precip Events Conditions
12:20 AM 44.6 °F 39.2 °F 32.0 °F 61% 30.01 in 6.2 mi ENE 10.4 mph - N/A   Unknown
12:50 AM 42.8 °F 38.6 °F 32.0 °F 66% 30.01 in 6.2 mi East 6.9 mph - N/A   Unknown
1:00 AM 43 °F - 31 °F 51% 30.01 in 31 mi East 8.1 mph - -  
1:20 AM 42.8 °F 37.0 °F 32.0 °F 66% 30.01 in 6.2 mi East 10.4 mph - N/A   Unknown
1:50 AM 41.0 °F 36.4 °F 32.0 °F 70% 29.98 in 6.2 mi East 6.9 mph - N/A   Unknown
2:20 AM 41.0 °F 38.0 °F 32.0 °F 70% 29.98 in 6.2 mi ENE 4.6 mph - N/A   Unknown
2:50 AM 39.2 °F 35.9 °F 32.0 °F 75% 29.98 in 6.2 mi ENE 4.6 mph - N/A   Unknown
3:20 AM 39.2 °F 34.2 °F 32.0 °F 75% 29.98 in 6.2 mi East 6.9 mph - N/A   Unknown
3:50 AM 39.2 °F 35.0 °F 32.0 °F 75% 29.95 in 6.2 mi NE 5.8 mph - N/A   Unknown
4:00 AM 39 °F - 31 °F 63% 29.97 in 47 mi NE 5.8 mph - -   Clear
4:20 AM 37.4 °F 31.4 °F 32.0 °F 81% 29.95 in 6.2 mi NE 8.1 mph - N/A   Unknown
4:50 AM 41.0 °F 35.2 °F 32.0 °F 70% 29.95 in 6.2 mi NE 9.2 mph - N/A   Unknown
5:20 AM 41.0 °F 35.2 °F 32.0 °F 70% 29.95 in 6.2 mi NE 9.2 mph - N/A   Unknown
5:50 AM 42.8 °F 37.5 °F 32.0 °F 66% 29.92 in 6.2 mi NE 9.2 mph - N/A   Unknown
6:20 AM 42.8 °F 37.5 °F 32.0 °F 66% 29.92 in 6.2 mi ENE 9.2 mph - N/A   Unknown
6:50 AM 44.6 °F 40.2 °F 33.8 °F 66% 29.92 in 6.2 mi East 8.1 mph - N/A   Unknown
7:00 AM 45 °F - 31 °F 47% 29.92 in 25 mi East 9.2 mph - -  
7:20 AM 46.4 °F 42.4 °F 33.8 °F 62% 29.89 in 6.2 mi ENE 8.1 mph - N/A   Unknown
7:50 AM 48.2 °F - 33.8 °F 58% 29.89 in 6.2 mi NE 5.8 mph - N/A   Unknown
8:20 AM 50.0 °F - 33.8 °F 54% 29.86 in 6.2 mi ENE 5.8 mph - N/A   Unknown
8:50 AM 51.8 °F - 32.0 °F 47% 29.86 in 6.2 mi East 5.8 mph - N/A   Unknown
9:20 AM 53.6 °F - 32.0 °F 44% 29.83 in 6.2 mi ESE 5.8 mph - N/A   Unknown
9:50 AM 53.6 °F - 32.0 °F 44% 29.83 in 6.2 mi SE 6.9 mph - N/A   Unknown
10:00 AM 54 °F - 29 °F 25% 29.83 in 47 mi ESE 6.9 mph - -   Clear
10:20 AM 55.4 °F - 32.0 °F 41% 29.80 in 6.2 mi SE 8.1 mph - N/A   Unknown
10:50 AM 57.2 °F - 32.0 °F 38% 29.77 in 6.2 mi East 6.9 mph - N/A   Unknown
11:20 AM 57.2 °F - 32.0 °F 38% 29.77 in 6.2 mi ESE 8.1 mph - N/A   Unknown
11:50 AM 57.2 °F - 30.2 °F 36% 29.74 in 6.2 mi ESE 5.8 mph - N/A   Unknown
12:20 PM 59.0 °F - 32.0 °F 36% 29.74 in 6.2 mi East 6.9 mph - N/A   Unknown
12:50 PM 60.8 °F - 32.0 °F 34% 29.71 in 6.2 mi East 9.2 mph - N/A   Unknown
1:00 PM 61 °F - 28 °F 17% 29.71 in 22 mi ENE 9.2 mph - -  
1:20 PM 60.8 °F - 32.0 °F 34% 29.68 in 6.2 mi ENE 9.2 mph - N/A   Unknown
1:50 PM 62.6 °F - 32.0 °F 32% 29.65 in 6.2 mi ENE 11.5 mph - N/A   Unknown
2:20 PM 62.6 °F - 32.0 °F 32% 29.65 in 6.2 mi East 12.7 mph - N/A   Unknown
2:50 PM 62.6 °F - 32.0 °F 32% 29.62 in 6.2 mi ENE 10.4 mph - N/A   Unknown
3:20 PM 62.6 °F - 32.0 °F 32% 29.62 in 6.2 mi NE 11.5 mph - N/A   Unknown
3:50 PM 62.6 °F - 32.0 °F 32% 29.59 in 6.2 mi ENE 10.4 mph - N/A   Unknown
4:00 PM 63 °F - 29 °F 17% 29.61 in 47 mi ENE 12.7 mph - -  
4:20 PM 62.6 °F - 32.0 °F 32% 29.59 in 6.2 mi NE 12.7 mph - N/A   Unknown
4:50 PM 62.6 °F - 32.0 °F 32% 29.56 in 6.2 mi NE 12.7 mph - N/A   Unknown
5:20 PM 62.6 °F - 33.8 °F 34% 29.56 in 6.2 mi NE 11.5 mph - N/A   Unknown
5:50 PM 60.8 °F - 32.0 °F 34% 29.56 in 6.2 mi ENE 15.0 mph - N/A   Unknown
6:20 PM 60.8 °F - 33.8 °F 36% 29.53 in 6.2 mi NE 11.5 mph - N/A   Unknown
6:50 PM 60.8 °F - 32.0 °F 34% 29.53 in 6.2 mi NE 11.5 mph - N/A   Unknown
7:00 PM 60 °F - 30 °F 20% 29.55 in 16 mi NNE 11.5 mph - -  
7:20 PM 60.8 °F - 33.8 °F 36% 29.53 in 6.2 mi Variable 13.8 mph 25.3 mph N/A   Unknown
7:50 PM 59.0 °F - 32.0 °F 36% 29.53 in 6.2 mi North 12.7 mph - N/A   Unknown
8:20 PM 59.0 °F - 33.8 °F 39% 29.50 in 6.2 mi NNE 12.7 mph - N/A   Unknown
8:50 PM 57.2 °F - 33.8 °F 41% 29.50 in 6.2 mi NNE 12.7 mph - N/A   Unknown
9:20 PM 55.4 °F - 33.8 °F 44% 29.50 in 6.2 mi NNE 10.4 mph - N/A   Unknown
9:50 PM 53.6 °F - 35.6 °F 51% 29.50 in 6.2 mi NNE 13.8 mph - N/A   Unknown
10:00 PM 54 °F - 33 °F 32% 29.52 in 25 mi NNE 13.8 mph - -  
10:20 PM 53.6 °F - 35.6 °F 51% 29.50 in 6.2 mi NNE 13.8 mph - N/A   Unknown
10:50 PM 50.0 °F - 35.6 °F 58% 29.50 in 6.2 mi ENE 10.4 mph - N/A   Unknown
11:20 PM 48.2 °F - 33.8 °F 58% 29.50 in 6.2 mi ENE 10.4 mph - N/A   Unknown
11:50 PM 46.4 °F 41.5 °F 33.8 °F 62% 29.50 in 6.2 mi ENE 10.4 mph - N/A   Unknown